Evreux, France

12:01 AM CEST on August 28, 2016 (GMT +0200)
Fauville Air Base

Weather History for LFOE - May, 2013

Change the Weather History Date:

Wednesday, May 1, 2013

  Actual Average Record
Temperature  
Mean Temperature 49 °F -  
Max Temperature 57 °F 62 °F 75 °F (2005)
Min Temperature 41 °F 46 °F 32 °F (2016)
Degree Days  
Heating Degree Days 16    
Moisture  
Dew Point 44 °F    
Average Humidity 80    
Maximum Humidity 100    
Minimum Humidity 67    
Precipitation  
Precipitation 0.00 in - - ()
Sea Level Pressure  
Sea Level Pressure 30.09 in    
Wind  
Wind Speed 8 mph ()    
Max Wind Speed 16 mph    
Max Gust Speed -    
Visibility 5.1 miles    
Events Rain    
Averages and records for this station are not official NWS values.
T = Trace of Precipitation, MM = Missing Value Source: Averaged Metar Reports

Daily Weather History Graph

Daily Weather History Graph

Search for Another Location

Airport or City:

Trip Planner

Search our weather history database for the weather conditions in past years. The results will help you decide how hot, cold, wet, or windy it might be!

Date:

Astronomy

May. 01, 2013 Rise Set
Actual Time 6:34 AM CEST 9:11 PM CEST
Civil Twilight 5:58 AM CEST 9:47 PM CEST
Nautical Twilight 5:13 AM CEST 10:32 PM CEST
Astronomical Twilight 4:20 AM CEST 11:26 PM CEST
Moon 2:12 AM CEST (5/1) 11:53 AM CEST (5/1)
Length of Visible Light 15h 48m
Length of Day
14h 37m
Waning Gibbous, 62% of the Moon is Illuminated
May 1
Waning Gibbous
May 2
Last Quarter
May 10
New
May 18
First Quarter
May 25
Full

Hourly Weather History & Observations

Time (CEST) Temp. Windchill Dew Point Humidity Pressure Visibility Wind Dir Wind Speed Gust Speed Precip Events Conditions
12:00 AM 48.2 °F - 41.0 °F 76% 30.15 in 6.2 mi NE 4.6 mph - N/A   Unknown
12:30 AM 48.2 °F - 41.0 °F 76% 30.15 in 6.2 mi NE 8.1 mph - N/A   Unknown
1:00 AM 46.4 °F 42.4 °F 39.2 °F 76% 30.15 in 6.2 mi NNE 8.1 mph - N/A   Mostly Cloudy
1:30 AM 44.6 °F 40.2 °F 41.0 °F 87% 30.15 in 6.2 mi NE 8.1 mph - N/A   Mostly Cloudy
2:00 AM 44.6 °F 40.7 °F 39.2 °F 81% 30.15 in 6.2 mi NNE 6.9 mph - N/A   Mostly Cloudy
2:30 AM 44.6 °F 40.7 °F 39.2 °F 81% 30.15 in 6.2 mi NE 6.9 mph - N/A   Mostly Cloudy
3:00 AM 44.6 °F 40.7 °F 39.2 °F 81% 30.12 in 6.2 mi NNE 6.9 mph - N/A   Mostly Cloudy
3:30 AM 44.6 °F 39.7 °F 39.2 °F 81% 30.12 in 6.2 mi NNE 9.2 mph - N/A   Mostly Cloudy
4:00 AM 44.6 °F 39.2 °F 39.2 °F 81% 30.12 in 6.2 mi NNE 10.4 mph - N/A   Overcast
4:30 AM 44.6 °F 39.7 °F 37.4 °F 76% 30.12 in 6.2 mi NNE 9.2 mph - N/A   Partly Cloudy
5:00 AM 42.8 °F 37.5 °F 37.4 °F 81% 30.12 in 6.2 mi NNE 9.2 mph - N/A   Unknown
5:30 AM 42.8 °F 38.6 °F 37.4 °F 81% 30.12 in 6.2 mi NNE 6.9 mph - N/A   Unknown
6:00 AM 42.8 °F 37.5 °F 37.4 °F 81% 30.12 in 6.2 mi NNE 9.2 mph - N/A   Unknown
6:30 AM 41.0 °F 35.8 °F 37.4 °F 87% 30.09 in 6.2 mi NNE 8.1 mph - N/A   Unknown
7:00 AM 42.8 °F 38.0 °F 37.4 °F 81% 30.12 in 6.2 mi NNE 8.1 mph - N/A   Unknown
7:30 AM 44.6 °F 38.8 °F 39.2 °F 81% 30.09 in 6.2 mi NNE 11.5 mph - N/A   Unknown
8:00 AM 46.4 °F 40.4 °F 39.2 °F 76% 30.12 in 6.2 mi NE 13.8 mph - N/A   Mostly Cloudy
8:30 AM 46.4 °F 40.4 °F 39.2 °F 76% 30.12 in 6.2 mi NE 13.8 mph - N/A   Overcast
9:00 AM 48.2 °F - 39.2 °F 71% 30.12 in 6.2 mi NE 12.7 mph - N/A   Mostly Cloudy
9:30 AM 48.2 °F - 39.2 °F 71% 30.12 in 6.2 mi NE 11.5 mph - N/A   Scattered Clouds
10:00 AM 48.2 °F - 41.0 °F 76% 30.12 in 6.2 mi NE 12.7 mph - N/A   Mostly Cloudy
10:30 AM 50.0 °F - 42.8 °F 76% 30.09 in 6.2 mi NE 12.7 mph - N/A   Overcast
11:00 AM 50.0 °F - 41.0 °F 71% 30.09 in 6.2 mi NE 13.8 mph - N/A   Overcast
11:30 AM 51.8 °F - 42.8 °F 71% 30.09 in 6.2 mi NNE 16.1 mph - N/A   Overcast
12:00 PM 51.8 °F - 42.8 °F 71% 30.09 in 6.2 mi NE 12.7 mph - N/A   Overcast
12:30 PM 53.6 °F - 44.6 °F 72% 30.06 in 6.2 mi NE 13.8 mph - N/A   Overcast
1:00 PM 53.6 °F - 42.8 °F 67% 30.09 in 6.2 mi NE 11.5 mph - N/A   Overcast
1:30 PM 53.6 °F - 44.6 °F 72% 30.06 in 6.2 mi NNE 12.7 mph - N/A   Overcast
2:00 PM 55.4 °F - 44.6 °F 67% 30.06 in 6.2 mi NNE 13.8 mph - N/A   Overcast
2:30 PM 55.4 °F - 44.6 °F 67% 30.06 in 6.2 mi NE 13.8 mph - N/A   Mostly Cloudy
3:00 PM 55.4 °F - 44.6 °F 67% 30.06 in 6.2 mi NE 13.8 mph - N/A   Overcast
3:30 PM 55.4 °F - 44.6 °F 67% 30.06 in 6.2 mi NE 12.7 mph - N/A   Overcast
4:00 PM 57.2 °F - 46.4 °F 67% 30.04 in 6.2 mi NNE 11.5 mph - N/A   Mostly Cloudy
4:30 PM 57.2 °F - 46.4 °F 67% 30.04 in 6.2 mi NNE 10.4 mph - N/A   Overcast
5:00 PM 55.4 °F - 46.4 °F 72% 30.04 in 6.2 mi NNE 9.2 mph - N/A   Overcast
5:30 PM 55.4 °F - 48.2 °F 77% 30.04 in 6.2 mi NNE 6.9 mph - N/A Rain Light Rain
6:00 PM 55.4 °F - 48.2 °F 77% 30.06 in - NE 5.8 mph - N/A Rain Light Rain
6:30 PM 53.6 °F - 50.0 °F 88% 30.06 in 1.6 mi ESE 5.8 mph - N/A Rain Light Rain
7:00 PM 51.8 °F - 50.0 °F 94% 30.06 in 1.2 mi SE 3.5 mph - N/A Rain Light Rain
7:30 PM 51.8 °F - 50.0 °F 94% 30.04 in - North 3.5 mph - N/A Rain Light Rain
8:00 PM 51.8 °F - 50.0 °F 94% 30.04 in 1.2 mi North 3.5 mph - N/A Rain Light Rain
8:30 PM 51.8 °F - 50.0 °F 94% 30.04 in 1.2 mi NNW 4.6 mph - N/A Rain Light Rain
9:00 PM 51.8 °F - 51.8 °F 100% 30.04 in 1.0 mi NNW 4.6 mph - N/A   Overcast
9:30 PM 51.8 °F - 50.0 °F 94% 30.04 in 0.7 mi NNW 6.9 mph - N/A   Overcast
10:00 PM 51.8 °F - 51.8 °F 100% 30.06 in 1.1 mi NNW 3.5 mph - N/A   Overcast
10:30 PM 51.8 °F - 51.8 °F 100% 30.06 in 1.1 mi North 3.5 mph - N/A Rain Light Rain
11:00 PM 51.8 °F - 50.0 °F 94% 30.06 in 1.2 mi Variable 3.5 mph - N/A   Light Drizzle
11:30 PM 51.8 °F - 50.0 °F 94% 30.06 in 1.5 mi NNW 4.6 mph - N/A   Overcast